This is the latest recevied weather packets stored in our database for station/object OM0AGP-15. If no packets are shown the sender has not sent any weather packets the latest 10 day(s).
| Time | Temp. | Humidity | Pressure | Rain* | Wind** | Luminosity | Snow |
|---|---|---|---|---|---|---|---|
| 1777504571 | -1.11° C | 55% | 1026.8 hPa | - | - | - | - |
| 1777503671 | -1.67° C | 55% | 1026.7 hPa | - | - | - | - |
| 1777502770 | -1.11° C | 53% | 1026.7 hPa | - | - | - | - |
| 1777501870 | -0.56° C | 51% | 1026.6 hPa | - | - | - | - |
| 1777500970 | -1.11° C | 53% | 1026.4 hPa | - | - | - | - |
| 1777500070 | -1.11° C | 53% | 1026.4 hPa | - | - | - | - |
| 1777499170 | -0.56° C | 52% | 1026.2 hPa | - | - | - | - |
| 1777498270 | -0.56° C | 51% | 1026.3 hPa | - | - | - | - |
| 1777497370 | -0.56° C | 50% | 1026 hPa | - | - | - | - |
| 1777496470 | 0° C | 50% | 1025.9 hPa | - | - | - | - |
| 1777495570 | 0° C | 49% | 1025.8 hPa | - | - | - | - |
| 1777494687 | 0.56° C | 48% | 1025.7 hPa | - | - | - | - |
| 1777493770 | 0.56° C | 47% | 1025.5 hPa | - | - | - | - |
| 1777492870 | 0.56° C | 44% | 1025.3 hPa | - | - | - | - |
| 1777491970 | 1.11° C | 41% | 1024.9 hPa | - | - | - | - |
| 1777491070 | 1.11° C | 40% | 1024.8 hPa | - | - | - | - |
| 1777490169 | 1.67° C | 38% | 1024.5 hPa | - | - | - | - |
| 1777489269 | 1.67° C | 37% | 1024.2 hPa | - | - | - | - |
| 1777488369 | 2.22° C | 36% | 1024.2 hPa | - | - | - | - |
| 1777487469 | 2.78° C | 35% | 1023.9 hPa | - | - | - | - |
| 1777486569 | 2.78° C | 34% | 1023.5 hPa | - | - | - | - |
| 1777485668 | 3.33° C | 32% | 1023.4 hPa | - | - | - | - |
| 1777484768 | 3.33° C | 31% | 1023.2 hPa | - | - | - | - |
| 1777483868 | 3.89° C | 31% | 1023.1 hPa | - | - | - | - |
| 1777482968 | 3.89° C | 30% | 1022.9 hPa | - | - | - | - |
* Rain since midnight (hover to see other rain measurements)
** Current wind speed in m/s (hover to see current wind gust speed)